MCBH Kaneohe Bay, HI

5:05 AM HST on February 21, 2017 (GMT -1000)
Kaneohe Bay Marine Corps Air Facility

Weather History for PHNG - January, 2013

Change the Weather History Date:

Monday, January 14, 2013

  Actual Average Record
Temperature  
Mean Temperature 75 °F -  
Max Temperature 80 °F 76 °F 82 °F (2003)
Min Temperature 70 °F 66 °F 46 °F (2000)
Cooling Degree Days 10    
Growing Degree Days 25 (Base 50)    
Moisture  
Dew Point 67 °F    
Average Humidity 77    
Maximum Humidity 91    
Minimum Humidity 64    
Precipitation  
Precipitation 0.78 in - - ()
Sea Level Pressure  
Sea Level Pressure 29.92 in    
Wind  
Wind Speed 6 mph (ENE)    
Max Wind Speed 15 mph    
Max Gust Speed 22 mph    
Visibility 8 miles    
Events Rain    
Averages and records for this station are not official NWS values.
T = Trace of Precipitation, MM = Missing Value Source: NWS Daily Summary

Daily Weather History Graph

Daily Weather History Graph

Search for Another Location

Airport or City:

Trip Planner

Search our weather history database for the weather conditions in past years. The results will help you decide how hot, cold, wet, or windy it might be!

Date:

Astronomy

Jan. 14, 2013 Rise Set
Actual Time 7:11 AM HST 6:09 PM HST
Civil Twilight 6:47 AM HST 6:33 PM HST
Nautical Twilight 6:20 AM HST 7:00 PM HST
Astronomical Twilight 5:53 AM HST 7:27 PM HST
Moon 9:21 AM HST (1/14) 9:32 PM HST (1/14)
Length of Visible Light 11h 45m
Length of Day
10h 58m
Waxing Crescent, 13% of the Moon is Illuminated
Jan 14
Waxing Crescent
Jan 18
First Quarter
Jan 26
Full
Feb 3
Last Quarter
Feb 9
New

Hourly Weather History & Observations

Time (HST) Temp. Heat Index Dew Point Humidity Pressure Visibility Wind Dir Wind Speed Gust Speed Precip Events Conditions
12:57 AM 73.4 °F - 66.9 °F 80% 29.93 in 10.0 mi SE 3.5 mph - N/A   Partly Cloudy
1:57 AM 73.4 °F - 66.0 °F 78% 29.92 in 10.0 mi SE 4.6 mph - N/A   Clear
2:57 AM 73.4 °F - 66.9 °F 80% 29.92 in 10.0 mi SSE 3.5 mph - N/A   Mostly Cloudy
3:57 AM 73.4 °F - 66.0 °F 78% 29.90 in 10.0 mi SSE 3.5 mph - N/A   Mostly Cloudy
4:57 AM 75.2 °F - 66.0 °F 73% 29.90 in 10.0 mi South 4.6 mph - N/A   Mostly Cloudy
5:57 AM 75.2 °F - 66.0 °F 73% 29.91 in 10.0 mi South 6.9 mph - N/A   Overcast
6:57 AM 75.2 °F - 66.0 °F 73% 29.91 in 10.0 mi South 5.8 mph - 0.00 in   Overcast
7:57 AM 75.2 °F - 66.0 °F 73% 29.93 in 10.0 mi SSW 6.9 mph - 0.00 in Rain Light Rain
8:57 AM 75.2 °F - 66.9 °F 75% 29.94 in 10.0 mi South 8.1 mph - 0.00 in   Overcast
9:57 AM 75.2 °F - 66.9 °F 75% 29.94 in 10.0 mi South 5.8 mph - 0.01 in Rain Light Rain
10:57 AM 74.1 °F - 68.0 °F 81% 29.92 in 10.0 mi South 8.1 mph - 0.07 in Rain Light Rain
11:57 AM 76.5 °F - 68.0 °F 75% 29.91 in 5.0 mi SW 12.7 mph 16.1 mph 0.29 in Rain Rain
12:19 PM 77.0 °F - 68.0 °F 74% 29.91 in 6.2 mi Calm Calm - 0.00 in Rain Light Rain
12:57 PM 77.5 °F - 68.0 °F 72% 29.88 in 4.0 mi Variable 3.5 mph - 0.07 in Rain Heavy Rain
1:07 PM 77.0 °F - 69.8 °F 78% 29.89 in - North 15.0 mph 21.9 mph 0.02 in Rain Light Rain
1:13 PM 77.0 °F - 69.8 °F 78% 29.89 in - North 13.8 mph - 0.03 in Rain Rain
1:57 PM 77.7 °F - 69.1 °F 75% 29.88 in 3.0 mi North 11.5 mph - 0.13 in Rain Rain
2:57 PM 80.1 °F 82.3 °F 66.9 °F 64% 29.88 in 10.0 mi NW 8.1 mph - 0.02 in   Overcast
3:57 PM 74.7 °F - 66.0 °F 74% 29.89 in 10.0 mi North 12.7 mph - N/A   Mostly Cloudy
4:57 PM 76.6 °F - 66.9 °F 72% 29.91 in 10.0 mi North 12.7 mph - 0.00 in Rain Light Rain
5:22 PM 75.2 °F - 66.2 °F 73% 29.93 in 6.2 mi North 6.9 mph - 0.02 in Rain Light Rain
5:32 PM 75.2 °F - 66.2 °F 73% 29.93 in 6.2 mi NNE 13.8 mph - 0.03 in Rain Light Rain
5:40 PM 75.2 °F - 66.2 °F 73% 29.93 in 6.2 mi NNE 13.8 mph - 0.03 in Rain Light Rain
5:57 PM 74.7 °F - 66.9 °F 77% 29.92 in 10.0 mi NNE 11.5 mph - 0.03 in   Overcast
6:14 PM 71.6 °F - 66.2 °F 83% 29.93 in 6.2 mi NNE 9.2 mph - N/A   Overcast
6:41 PM 71.6 °F - 66.2 °F 83% 29.94 in 6.2 mi NE 9.2 mph - 0.00 in Rain Light Rain
6:57 PM 72.1 °F - 66.0 °F 81% 29.93 in 10.0 mi NNE 10.4 mph - 0.02 in Rain Light Rain
7:57 PM 72.1 °F - 66.0 °F 81% 29.93 in 10.0 mi Calm Calm - 0.00 in   Overcast
8:08 PM - - - N/A% 29.94 in 6.2 mi Calm Calm - N/A   Overcast
8:57 PM 73.0 °F - 66.9 °F 81% 29.93 in 10.0 mi Calm Calm - 0.05 in Rain Light Rain
9:45 PM 71.6 °F - 66.2 °F 83% 29.95 in 6.0 mi Calm Calm - 0.03 in Rain Rain
9:57 PM 70.9 °F - 66.0 °F 85% 29.94 in 6.0 mi Calm Calm - 0.04 in Rain Light Rain
10:57 PM 70.7 °F - 66.9 °F 88% 29.93 in 10.0 mi Calm Calm - 0.03 in Rain Light Rain
11:57 PM 70.7 °F - 68.0 °F 91% 29.92 in 10.0 mi Calm Calm - 0.02 in Rain Light Rain